Terminal Aerodrome Forecast
Issued by NWS Twin Cities, MN

Home | Current Version | Previous Version | Text Only | Print | Product List | Glossary Off
Versions: 1 2 3 4 5 6 7 8 9 10 11 12 13 14 15 16 17 18 19 20 21 22 23 24 25 26 27 28

067
FTUS43 KMPX 051732
TAFMSP
TAF
KMSP 051732Z 0518/0624 15008KT P6SM BKN090
     FM052100 19008KT P6SM -SN SCT025 BKN050
     FM060100 20006KT P6SM BKN020
     FM060600 25005KT P6SM SCT020
     FM061200 19008KT P6SM BKN250=

USA.gov is the U.S. government's official web portal to all federal, state and local government web resources and services.